Location: Crescent
(42.8242°N, 73.7329°W)
Time: 12:01:33
(UTC+00:00)

Transit 4A - Pass Details

Date: 18 February 2026
Orbit: 863 x 978 km, 66.8° (Epoch: 17 March)

Event Time Altitude Azimuth Distance (km) Brightness Sun altitude
Rises 07:19:00 0° 172° (S) 3,436 - -47.9°
Reaches altitude 10° 07:21:51 10° 159° (SSE) 2,513 - -47.5°
Maximum altitude 07:26:27 25° 107° (ESE) 1,717 - -46.8°
Exits shadow 07:30:09 14° 61° (ENE) 2,292 10.4 -46.3°
Drops below altitude 10° 07:31:09 10° 54° (NE) 2,576 10.8 -46.1°
Sets 07:34:06 0° 42° (NE) 3,541 11.6 -45.7°
